Амбарчик

Россия / Республика Саха (Якутия)     69°37′28″N   162°18′05″E
темп.,
°C
ветер,
м/с
пор.,
м/с
влажн.,
%
обл.,
%
осадки,
мм/ч
давл.,
гПа
погр.,
м
27 февраля, сб
сб2723:00−30юз119999 0.1 103319
02:00−30зюз1210098 0.1 103319
05:00−31з0110099 0.1 103219
08:00−33зсз0110096 0.0 103319
11:00−31всв1110094 0.0 103319
14:00−30ссз1110099 0.0 103219
17:00−33з11100100 0.0 103219
20:00−33всв1110094 0.0 103219
28 февраля, вс
вс2823:00−33св0010076 0.0 103319
02:00−33з1110030 0.0 103219
05:00−34ю0010042 0.0 103219
08:00−34св111000 0.0 103219
11:00−32св11992 0.0 103219
14:00−31св11990 0.0 103119
17:00−32св111007 0.0 103019
20:00−30в22930 0.0 103019
1 марта, пн
пн123:00−30всв12900 0.0 102919
02:00−30всв22890 0.0 102719
05:00−30всв22870 0.0 102619
08:00−29всв33860 0.0 102523
11:00−28всв33870 0.0 102442
14:00−28всв33910 0.0 102226
17:00−31всв22920 0.0 102019
20:00−31в22890 0.0 102119
2 марта, вт
вт223:00−32в11880 0.0 102019
02:00−33всв11910 0.0 102119
05:00−35юз00950 0.0 102119
08:00−35з11970 0.0 102319
11:00−33з11960 0.0 102419
14:00−33з119840 0.0 102519
17:00−36зюз0110020 0.0 102619
20:00−37зюз011000 0.0 102819
3 марта, ср
ср323:00−38юз111007 0.0 102919
02:00−38зюз001000 0.0 103019
05:00−38зюз1110021 0.0 103119
08:00−38всв111005 0.0 103119
11:00−35св12985 0.0 103019
14:00−34св22988 0.0 102920
17:00−35всв22995 0.0 102619
20:00−33в22920 0.0 102419